User: anonymous   Login
Location: Sedan
(39.2354°N, 78.5718°W)
Time: 01:06:09
(UTC+00:00)
Language:

deb Agena D - Orbit

View from above orbital plane
View from above orbital plane
View from above satellite
View from above satellite

Ground track
Ground track

The orbit data is extracted from the following two-line orbital elements,

1 04547U 69082GN  22226.21383609  .00000465  00000-0  20253-3 0  9991
2 04547  69.9901 139.0922 0038293 337.3261  22.6168 14.29594910731114
Epoch (UTC): 14 August 2022 05:07:55
Eccentricity: 0.0038293
inclination: 69.9901°
perigee height: 765 km
apogee height: 820 km
right ascension of ascending node: 139.0922°
argument of perigee: 337.3261°
revolutions per day: 14.29594910
mean anomaly at epoch: 22.6168°
orbit number at epoch: 73111

The dashed part of the orbit path shows where the satellite is in the earth's shadow,  

DLR